Location: Beutels
(47.8767°N, 9.8584°E)
Time: 19:41:57
(UTC+00:00)

Cosmos 1833 Rocket - Pass Details

Date: 19 May 2025
Orbit: 831 x 838 km, 71.0° (Epoch: 20 June)

Event Time Altitude Azimuth Distance (km) Brightness Sun altitude
Rises 20:21:44 0° 200° (SSW) 3,376 5.5 -11.6°
Reaches altitude 10° 20:24:10 10° 199° (SSW) 2,446 4.8 -11.9°
Maximum altitude 20:29:46 76° 114° (ESE) 868 2.6 -12.5°
Drops below altitude 10° 20:35:25 10° 30° (NNE) 2,463 5.4 -13.1°
Sets 20:37:52 0° 29° (NNE) 3,401 6.2 -13.4°
